VOE3LL LFPO-LFBL

Flight info

Callsign VOE3LL
Flight time 0h 43m
Altitude 27000
Route ERIX2W ERIXU DCT ETAMO DCT GUERE GUER3M
Aircraft A319/M-SDE3FGHIRWY/LB1

Departure

Time 2026-04-12 06:45
Airport Paris-Orly Airport (LFPO)

Arrival

Time 2026-04-12 07:29
Airport Limoges Airport (LFBL)
Time Latitude Longitude Altitude Speed Heading
2026-04-12 06:26 48.72843 2.35753 298 ft 0 kts 14°
2026-04-12 06:34 48.72834 2.35750 300 ft 4 kts 14°
2026-04-12 06:35 48.72787 2.35720 300 ft 4 kts 63°
2026-04-12 06:35 48.72779 2.35684 300 ft 4 kts 70°
2026-04-12 06:35 48.72768 2.35646 299 ft 4 kts 59°
2026-04-12 06:36 48.72752 2.35616 300 ft 4 kts 29°
2026-04-12 06:36 48.72734 2.35610 300 ft 2 kts 345°
2026-04-12 06:36 48.72709 2.35620 299 ft 3 kts 345°
2026-04-12 06:36 48.72705 2.35622 299 ft 0 kts 345°
2026-04-12 06:40 48.72707 2.35621 295 ft 2 kts 345°
2026-04-12 06:41 48.72744 2.35606 296 ft 9 kts 345°
2026-04-12 06:41 48.72809 2.35578 295 ft 10 kts 344°
2026-04-12 06:41 48.72881 2.35547 295 ft 11 kts 343°
2026-04-12 06:41 48.72960 2.35523 295 ft 12 kts
2026-04-12 06:42 48.73032 2.35585 294 ft 13 kts 55°
2026-04-12 06:42 48.73079 2.35702 295 ft 13 kts 59°
2026-04-12 06:42 48.73131 2.35826 294 ft 15 kts 57°
2026-04-12 06:42 48.73188 2.35960 294 ft 16 kts 56°
2026-04-12 06:43 48.73247 2.36087 294 ft 12 kts 48°
2026-04-12 06:43 48.73319 2.36082 295 ft 12 kts 334°
2026-04-12 06:43 48.73397 2.36093 296 ft 12 kts 19°
2026-04-12 06:43 48.73479 2.36081 296 ft 13 kts 328°
2026-04-12 06:44 48.73510 2.35967 295 ft 13 kts 239°
2026-04-12 06:44 48.73490 2.35911 297 ft 0 kts 242°
2026-04-12 06:44 48.73464 2.35839 294 ft 30 kts 242°
2026-04-12 06:44 48.73229 2.35168 296 ft 110 kts 241°
2026-04-12 06:45 48.72762 2.33852 337 ft 166 kts 240°
2026-04-12 06:45 48.72225 2.32321 1015 ft 167 kts 240°
2026-04-12 06:45 48.71651 2.30803 1890 ft 165 kts 238°
2026-04-12 06:45 48.71007 2.29290 2497 ft 180 kts 238°
2026-04-12 06:46 48.70265 2.27582 2912 ft 206 kts 237°
2026-04-12 06:46 48.69432 2.25664 3477 ft 230 kts 237°
2026-04-12 06:46 48.68518 2.23549 4147 ft 247 kts 237°
2026-04-12 06:46 48.67566 2.21339 5150 ft 253 kts 237°
2026-04-12 06:47 48.66597 2.19092 6179 ft 257 kts 237°
2026-04-12 06:47 48.65487 2.16956 7156 ft 262 kts 224°
2026-04-12 06:47 48.64037 2.15273 8170 ft 264 kts 215°
2026-04-12 06:47 48.62461 2.13816 9170 ft 268 kts 212°
2026-04-12 06:48 48.60832 2.12412 10129 ft 272 kts 211°
2026-04-12 06:48 48.59122 2.10932 10534 ft 294 kts 212°
2026-04-12 06:48 48.57283 2.09306 10862 ft 317 kts 211°
2026-04-12 06:48 48.55243 2.08029 11540 ft 327 kts 198°
2026-04-12 06:49 48.52971 2.07497 12390 ft 334 kts 185°
2026-04-12 06:49 48.50636 2.07797 13261 ft 342 kts 172°
2026-04-12 06:49 48.48357 2.08964 14081 ft 349 kts 162°
2026-04-12 06:49 48.46097 2.10367 14816 ft 352 kts 162°
2026-04-12 06:50 48.43829 2.11786 15568 ft 354 kts 163°
2026-04-12 06:50 48.41550 2.13217 16288 ft 357 kts 163°
2026-04-12 06:50 48.39248 2.14655 17014 ft 359 kts 163°
2026-04-12 06:50 48.36931 2.16091 17723 ft 362 kts 163°
2026-04-12 06:51 48.34591 2.17536 18433 ft 364 kts 163°
2026-04-12 06:51 48.32245 2.18983 19074 ft 366 kts 164°
2026-04-12 06:51 48.29882 2.20414 19738 ft 365 kts 167°
2026-04-12 06:51 48.27439 2.21353 20405 ft 359 kts 176°
2026-04-12 06:52 48.24974 2.21943 21106 ft 359 kts 177°
2026-04-12 06:52 48.22507 2.22534 21753 ft 359 kts 177°
2026-04-12 06:52 48.20034 2.23129 22369 ft 360 kts 177°
2026-04-12 06:52 48.17550 2.23732 22969 ft 362 kts 177°
2026-04-12 06:53 48.15063 2.24339 23570 ft 363 kts 177°
2026-04-12 06:53 48.12565 2.24947 24078 ft 364 kts 178°
2026-04-12 06:53 48.10062 2.25551 24557 ft 365 kts 178°
2026-04-12 06:53 48.07553 2.26028 25017 ft 361 kts 183°
2026-04-12 06:54 48.05039 2.26192 25478 ft 362 kts 184°
2026-04-12 06:54 48.02521 2.26351 25925 ft 363 kts 184°
2026-04-12 06:54 47.99986 2.26509 26408 ft 364 kts 184°
2026-04-12 06:54 47.97451 2.26668 26832 ft 366 kts 183°
2026-04-12 06:55 47.94899 2.26830 27071 ft 367 kts 183°
2026-04-12 06:55 47.92350 2.26995 27111 ft 366 kts 183°
2026-04-12 06:55 47.89799 2.27160 27110 ft 366 kts 183°
2026-04-12 06:55 47.87290 2.27322 27110 ft 366 kts 183°
2026-04-12 06:56 47.84748 2.27485 27111 ft 366 kts 183°
2026-04-12 06:56 47.82209 2.27646 27110 ft 366 kts 183°
2026-04-12 06:56 47.79659 2.27806 27113 ft 366 kts 183°
2026-04-12 06:56 47.77085 2.27968 27090 ft 366 kts 183°
2026-04-12 06:57 47.74536 2.28127 27114 ft 367 kts 183°
2026-04-12 06:57 47.72010 2.28284 27114 ft 367 kts 183°
2026-04-12 06:57 47.69460 2.28442 27114 ft 367 kts 183°
2026-04-12 06:57 47.66903 2.28599 27113 ft 367 kts 183°
2026-04-12 06:58 47.64344 2.28758 27114 ft 367 kts 183°
2026-04-12 06:58 47.61789 2.28919 27114 ft 367 kts 183°
2026-04-12 06:58 47.59238 2.29084 27111 ft 367 kts 183°
2026-04-12 06:58 47.56683 2.29249 27095 ft 368 kts 183°
2026-04-12 06:59 47.54127 2.29413 27096 ft 368 kts 183°
2026-04-12 06:59 47.51568 2.29575 27094 ft 368 kts 183°
2026-04-12 06:59 47.49009 2.29734 27096 ft 368 kts 183°
2026-04-12 07:00 47.43891 2.30051 27099 ft 368 kts 183°
2026-04-12 07:00 47.41331 2.30212 27101 ft 368 kts 183°
2026-04-12 07:00 47.38771 2.30373 27101 ft 368 kts 183°
2026-04-12 07:00 47.36212 2.30535 27080 ft 368 kts 183°
2026-04-12 07:01 47.33645 2.30694 27084 ft 368 kts 184°
2026-04-12 07:01 47.31116 2.30849 27087 ft 368 kts 184°
2026-04-12 07:01 47.28554 2.31006 27090 ft 369 kts 184°
2026-04-12 07:01 47.25997 2.31162 27090 ft 369 kts 184°
2026-04-12 07:02 47.23422 2.31320 27092 ft 369 kts 183°
2026-04-12 07:02 47.20855 2.31479 27099 ft 369 kts 184°
2026-04-12 07:02 47.18280 2.31635 27102 ft 369 kts 184°
2026-04-12 07:02 47.15715 2.31789 27100 ft 369 kts 184°
2026-04-12 07:03 47.13145 2.31947 27080 ft 369 kts 183°
2026-04-12 07:03 47.10617 2.32106 27089 ft 369 kts 183°
2026-04-12 07:03 47.08052 2.32269 27092 ft 369 kts 183°
2026-04-12 07:03 47.05490 2.32428 27090 ft 369 kts 183°
2026-04-12 07:04 47.02918 2.32584 27094 ft 369 kts 183°
2026-04-12 07:04 47.00353 2.32741 27096 ft 369 kts 183°
2026-04-12 07:04 46.97787 2.32898 27102 ft 369 kts 183°
2026-04-12 07:04 46.95221 2.33057 27099 ft 369 kts 183°
2026-04-12 07:05 46.92655 2.33216 27084 ft 369 kts 183°
2026-04-12 07:05 46.90094 2.33375 27086 ft 369 kts 183°
2026-04-12 07:05 46.87521 2.33534 27088 ft 370 kts 183°
2026-04-12 07:05 46.84952 2.33620 27090 ft 367 kts 187°
2026-04-12 07:06 46.82440 2.33132 27089 ft 363 kts 196°
2026-04-12 07:06 46.80001 2.32198 27091 ft 362 kts 197°
2026-04-12 07:06 46.77567 2.31253 27092 ft 362 kts 197°
2026-04-12 07:06 46.75128 2.30311 27094 ft 362 kts 197°
2026-04-12 07:07 46.72692 2.29373 27096 ft 362 kts 197°
2026-04-12 07:07 46.70255 2.28437 27101 ft 362 kts 197°
2026-04-12 07:07 46.67812 2.27499 27100 ft 362 kts 197°
2026-04-12 07:07 46.65407 2.26577 27102 ft 362 kts 197°
2026-04-12 07:08 46.62968 2.25640 27097 ft 362 kts 197°
2026-04-12 07:08 46.60519 2.24702 27100 ft 362 kts 197°
2026-04-12 07:08 46.58083 2.23774 27102 ft 362 kts 197°
2026-04-12 07:08 46.55645 2.22848 27101 ft 362 kts 197°
2026-04-12 07:09 46.53206 2.21918 27083 ft 363 kts 197°
2026-04-12 07:09 46.50753 2.20983 27083 ft 363 kts 197°
2026-04-12 07:09 46.48312 2.20050 27084 ft 364 kts 197°
2026-04-12 07:09 46.45855 2.19112 27086 ft 364 kts 197°
2026-04-12 07:10 46.43427 2.18189 27086 ft 365 kts 197°
2026-04-12 07:10 46.40971 2.17256 27088 ft 365 kts 197°
2026-04-12 07:10 46.38507 2.16319 27089 ft 365 kts 197°
2026-04-12 07:10 46.36033 2.15383 26959 ft 366 kts 197°
2026-04-12 07:11 46.33561 2.14450 26689 ft 368 kts 197°
2026-04-12 07:11 46.31911 2.13828 26521 ft 369 kts 197°
2026-04-12 07:11 46.29418 2.12887 26268 ft 370 kts 197°
2026-04-12 07:11 46.26931 2.11946 26018 ft 369 kts 197°
2026-04-12 07:12 46.23673 2.10714 25459 ft 361 kts 197°
2026-04-12 07:12 46.22050 2.10053 25094 ft 356 kts 201°
2026-04-12 07:12 46.19813 2.08603 24518 ft 350 kts 211°
2026-04-12 07:12 46.17838 2.06573 23917 ft 348 kts 220°
2026-04-12 07:13 46.16180 2.04053 23280 ft 347 kts 229°
2026-04-12 07:13 46.14670 2.01398 22682 ft 345 kts 228°
2026-04-12 07:13 46.13149 1.98748 22188 ft 341 kts 228°
2026-04-12 07:13 46.11633 1.96123 21684 ft 339 kts 228°
2026-04-12 07:14 46.10126 1.93521 21209 ft 336 kts 228°
2026-04-12 07:14 46.08634 1.90950 20736 ft 333 kts 228°
2026-04-12 07:14 46.07157 1.88398 20291 ft 330 kts 228°
2026-04-12 07:14 46.05693 1.85868 19848 ft 328 kts 228°
2026-04-12 07:15 46.04233 1.83352 19418 ft 327 kts 228°
2026-04-12 07:15 46.02769 1.80831 18987 ft 327 kts 228°
2026-04-12 07:15 46.01312 1.78323 18552 ft 326 kts 228°
2026-04-12 07:15 45.99855 1.75816 18069 ft 326 kts 228°
2026-04-12 07:16 45.98405 1.73321 17603 ft 325 kts 229°
2026-04-12 07:16 45.96956 1.70828 17162 ft 324 kts 229°
2026-04-12 07:16 45.95528 1.68372 16711 ft 323 kts 229°
2026-04-12 07:16 45.94091 1.65900 16266 ft 322 kts 230°
2026-04-12 07:17 45.92656 1.63439 15816 ft 320 kts 230°
2026-04-12 07:17 45.91224 1.60992 15323 ft 320 kts 230°
2026-04-12 07:17 45.89793 1.58548 14827 ft 320 kts 230°
2026-04-12 07:17 45.88363 1.56104 14342 ft 320 kts 230°
2026-04-12 07:18 45.86930 1.53660 13838 ft 320 kts 230°
2026-04-12 07:18 45.85495 1.51212 13307 ft 320 kts 230°
2026-04-12 07:18 45.84067 1.48778 12810 ft 318 kts 230°
2026-04-12 07:18 45.82642 1.46355 12306 ft 316 kts 230°
2026-04-12 07:19 45.81226 1.43951 11811 ft 315 kts 230°
2026-04-12 07:19 45.79815 1.41552 11309 ft 313 kts 230°
2026-04-12 07:19 45.78413 1.39169 10826 ft 312 kts 230°
2026-04-12 07:19 45.77039 1.36834 10683 ft 300 kts 230°
2026-04-12 07:20 45.75721 1.34598 10559 ft 288 kts 231°
2026-04-12 07:20 45.74450 1.32446 10365 ft 280 kts 231°
2026-04-12 07:20 45.73203 1.30335 10126 ft 276 kts 231°
2026-04-12 07:20 45.71985 1.28275 9960 ft 274 kts 231°
2026-04-12 07:21 45.70751 1.26187 9826 ft 274 kts 231°
2026-04-12 07:21 45.69517 1.24100 9607 ft 275 kts 231°
2026-04-12 07:21 45.68257 1.21972 9003 ft 281 kts 230°
2026-04-12 07:21 45.66998 1.19857 8590 ft 278 kts 230°
2026-04-12 07:22 45.65721 1.17712 7899 ft 287 kts 230°
2026-04-12 07:22 45.64447 1.15568 7654 ft 278 kts 230°
2026-04-12 07:22 45.63409 1.13319 7515 ft 264 kts 251°
2026-04-12 07:22 45.63205 1.10809 7388 ft 250 kts 278°
2026-04-12 07:23 45.63825 1.08508 6929 ft 251 kts 308°
2026-04-12 07:23 45.64997 1.06670 6512 ft 251 kts 315°
2026-04-12 07:23 45.66199 1.04868 6068 ft 247 kts 315°
2026-04-12 07:23 45.67466 1.03346 5672 ft 235 kts 336°
2026-04-12 07:24 45.69004 1.02850 5283 ft 225 kts
2026-04-12 07:24 45.70484 1.03451 4881 ft 220 kts 31°
2026-04-12 07:24 45.71748 1.04620 4514 ft 213 kts 33°
2026-04-12 07:24 45.72950 1.05746 4196 ft 199 kts 33°
2026-04-12 07:25 45.74071 1.06797 3913 ft 188 kts 32°
2026-04-12 07:25 45.75139 1.07795 3605 ft 178 kts 32°
2026-04-12 07:25 45.76147 1.08737 3382 ft 168 kts 32°
2026-04-12 07:25 45.77095 1.09623 3170 ft 158 kts 32°
2026-04-12 07:26 45.77993 1.10463 2966 ft 150 kts 32°
2026-04-12 07:26 45.78832 1.11249 2783 ft 136 kts 31°
2026-04-12 07:26 45.79598 1.11967 2602 ft 128 kts 31°
2026-04-12 07:26 45.80327 1.12648 2438 ft 125 kts 31°
2026-04-12 07:27 45.81064 1.13337 2266 ft 124 kts 31°
2026-04-12 07:27 45.81790 1.14016 2098 ft 125 kts 32°
2026-04-12 07:27 45.82509 1.14689 1931 ft 126 kts 32°
2026-04-12 07:27 45.83243 1.15374 1761 ft 126 kts 32°
2026-04-12 07:28 45.83984 1.16067 1600 ft 127 kts 33°
2026-04-12 07:28 45.84727 1.16764 1475 ft 128 kts 33°
2026-04-12 07:28 45.85469 1.17459 1331 ft 127 kts 33°
2026-04-12 07:28 45.86135 1.18083 1312 ft 84 kts 33°
2026-04-12 07:29 45.86409 1.18343 1312 ft 19 kts 33°
2026-04-12 07:29 45.86489 1.18409 1311 ft 9 kts
2026-04-12 07:29 45.86511 1.18445 1312 ft 5 kts 136°
2026-04-12 07:29 45.86474 1.18415 1312 ft 10 kts 227°
2026-04-12 07:30 45.86387 1.18320 1312 ft 19 kts 213°
2026-04-12 07:30 45.86274 1.18215 1311 ft 20 kts 213°
2026-04-12 07:30 45.86163 1.18110 1312 ft 19 kts 212°
2026-04-12 07:30 45.86096 1.17988 1313 ft 14 kts 286°
2026-04-12 07:31 45.86145 1.17878 1314 ft 13 kts 300°
2026-04-12 07:31 45.86107 1.17788 1315 ft 11 kts 213°
2026-04-12 07:31 45.86054 1.17716 1315 ft 9 kts 265°
2026-04-12 07:31 45.86082 1.17657 1315 ft 2 kts 335°
2026-04-12 07:32 45.86097 1.17684 1315 ft 3 kts 70°
2026-04-12 07:32 45.86099 1.17692 1315 ft 0 kts 72°